Regional Weather Roundup
Issued by NWS

Home | Current Version | Previous Version | Graphics & Text | Print | Product List | Glossary On
Versions: 1 2 3 4 5 6 7 8 9 10 11 12 13 14 15 16 17 18 19 20 21 22 23 24 25 26 27 28 29 30 31 32 33 34 35 36 37 38 39 40 41 42 43 44 45 46 47 48 49 50
462
ASUS43 KLOT 221908
RWRIL

ILLINOIS REGIONAL WEATHER ROUNDUP
NATIONAL WEATHER SERVICE CHICAGO/ROMEOVILLE IL
100 PM CST SUN JAN 22 2017

NOTE: "FAIR" INDICATES FEW OR NO CLOUDS BELOW 12,000 FEET WITH NO
SIGNIFICANT WEATHER AND/OR OBSTRUCTIONS TO VISIBILITY.

* THESE STATIONS ARE NOT UNDER NWS QUALITY CONTROL. THEY ALSO MAY NOT
  REPORT WEATHER SUCH AS PRECIPITATION OR FOG.

ILZ001-002-007-009-015-016-024-222000-
NORTHWEST ILLINOIS

CITY           SKY/WX    TMP DP  RH WIND       PRES   REMARKS
MOLINE         CLOUDY    41  34  76 NW6       29.65S
STERLING*      CLOUDY    37  37 100 N5        29.66S WCI  33
SAVANNA*       SUNNY     38  38 100 NW6       29.65F WCI  34
$$

ILZ003-004-008-010-011-017-018-222000-
NORTH CENTRAL ILLINOIS

CITY           SKY/WX    TMP DP  RH WIND       PRES   REMARKS
ROCKFORD       CLOUDY    41  37  86 CALM      29.65F FOG
FREEPORT*      CLOUDY    38  37  99 CALM      29.66S FOG
ROCHELLE*      CLOUDY    37  37 100 N8        29.64F FOG     WCI  31
DE KALB*       CLOUDY    37  36  99 NW6       29.64S FOG     WCI  32
PERU*          CLOUDY    40  36  85 N12G17    29.62F
$$

ILZ005-006-012>014-019>023-222000-
NORTHEAST ILLINOIS

CITY           SKY/WX    TMP DP  RH WIND       PRES   REMARKS
CHICAGO-OHARE  CLOUDY    45  39  79 N5        29.60F
CHICAGO-MIDWAY CLOUDY    44  40  85 N7        29.61F
AURORA         CLOUDY    40  38  93 NW12      29.62F FOG
LANSING*       CLOUDY    40  40 100 N7        29.61F FOG
JOLIET*        CLOUDY    45  42  91 NE7       29.61S
WAUKEGAN       CLOUDY    45  38  76 CALM      29.61F
DUPAGE AIRPORT CLOUDY    42  38  85 NW7       29.61F FOG
KANKAKEE*      CLOUDY    44  43  97 N10       29.58F FOG
WHEELING       CLOUDY    45  38  76 N3        29.62F
MORRIS*        CLOUDY    42  41  97 N6        29.60S
ROMEOVILLE*    CLOUDY    44  44 100 NE6       29.60F FOG
NORTHERLY ISL    N/A     38  37  97 N7          N/A  WCI  33
$$

LMZ740>746-222000-
SOUTHERN LAKE MICHIGAN

STATION/POSITION SKY/WX   TEMP    WIND        PRES    VSBY  WAVE
                          AIR SEA DIR/SP/G                  HT/PER
                          (F)     (DEG/KT/KT) (MB)    (MI)  (FT/S)
HARRISON CRIB              40     360/  6/  6   N/A
BURNHAM HARBOR             38      20/  6/  8   N/A
CALUMET HARBOR             39     350/  5/  8 1002.5F
BURNS HARBOR               35     360/  6/  8 1003.7F
MICHIGAN CITY              36     360/  7/  7   N/A
$$

ILZ025>027-034>036-040-047-049-050-058-095>099-222000-
WEST-CENTRAL ILLINOIS

CITY           SKY/WX    TMP DP  RH WIND       PRES   REMARKS
QUINCY         CLOUDY    47  40  76 N20       29.60F
GALESBURG*     CLOUDY    42  38  86 N9        29.63F
MACOMB*        CLOUDY    42  41  94 N14       29.64F FOG
JACKSONVILLE*  CLOUDY    49  42  78 N14       29.55F
PITTSFIELD*    MOSUNNY   52  41  66 N14G21    29.57F
$$

ILZ028>032-037-038-041>044-048-051>054-059>061-222000-
CENTRAL ILLINOIS

CITY           SKY/WX    TMP DP  RH WIND       PRES   REMARKS
PONTIAC        CLOUDY    43  43 100 N15       29.60S
BLOOMINGTON    PTSUNNY   46  42  86 N15       29.57F
DECATUR        CLOUDY    50  48  93 N13       29.52F
PEORIA         CLOUDY    47  40  76 N9        29.60F
LACON*         CLOUDY    42  40  92 N7        29.60F
LINCOLN*       MOSUNNY   49  45  83 N15       29.55F
SPRINGFIELD    CLOUDY    52  44  74 N15       29.55S
TAYLORVILLE    CLOUDY    47  46  95 N17       29.52F
$$

ILZ033-039-045-046-055>057-062-063-222000-
EAST-CENTRAL ILLINOIS

CITY           SKY/WX    TMP DP  RH WIND       PRES   REMARKS
CHAMPAIGN      CLOUDY    53  47  79 N13       29.52F
RANTOUL*       CLOUDY    48  46  93 N12       29.54F FOG
MATTOON        CLOUDY    57  53  86 NE12      29.49F
PARIS*         CLOUDY    57  53  86 N6        29.51F
$$

ILZ079-100>102-222000-
SOUTHWEST ILLINOIS

CITY           SKY/WX    TMP DP  RH WIND       PRES   REMARKS
ALTON          CLOUDY    48  45  87 N12G17    29.50F FOG
BELLEVILLE     PTSUNNY   58  51  79 N13       29.46F
CAHOKIA*       PTSUNNY   53  45  74 N16       29.49F
SPARTA*        CLOUDY    58  51  78 N8        29.46F
$$

ILZ064>066-069>071-074>076-080>082-084>086-088>090-092>094-222000-
SOUTH-CENTRAL ILLINOIS

CITY           SKY/WX    TMP DP  RH WIND       PRES   REMARKS
CARBONDALE     PTSUNNY   61  53  75 NE8       29.42F
CAIRO*         DRIZZLE   59  54  85 N8        29.37F
EFFINGHAM*     CLOUDY    59  54  83 N7        29.48F
MARION         PTSUNNY   64  52  63 E7        29.44F
MT. VERNON     MOSUNNY   62  52  69 NE13      29.43F
CENTRALIA*     PTSUNNY   62  54  74 NE14      29.43F
SALEM*         CLOUDY    61  53  74 NE10G17   29.45F
METROPOLIS*    LGT RAIN  60  54  78 CALM      29.38F
$$

ILZ067-068-072-073-078-083-087-091-222000-
SOUTHEAST ILLINOIS

CITY           SKY/WX    TMP DP  RH WIND       PRES   REMARKS
LAWRENCEVILLE  MOSUNNY   59  52  77 NE15      29.45F
FLORA*         CLOUDY    62  53  72 NE12      29.45F
FAIRFIELD*     CLOUDY    60  52  76 NE10      29.42F
HARRISBURG*    CLOUDY    59  53  80 E6        29.43F
ROBINSON*      CLOUDY    58  51  78 N9        29.48F
CARMI*         MOSUNNY   61  53  75 NE8       29.43S
$$

ABBREVIATIONS USED IN REMARKS
   TC - TEMPERATURE IN CELSIUS
  WCI - WIND CHILL INDEX
   HX - HEAT INDEX
  VSB - VISIBILITY
$$





USA.gov is the U.S. government's official web portal to all federal, state and local government web resources and services.